Flight Track Log - Related Links

Times and Time Zones

All times are in EDT time to prevent confusion due to time zone crossing. See the N146TJ flight status page for this flight to view local times or setup timezone preferences in your user account.

Time Position Orientation Groundspeed Altitude Reporting Facility
EDT Latitude Longitude Course Direction KTS MPH feet Rate Location/Type
02:42PM 43.4500 -71.5167 210° Southwest 130 150 3,800  Level KA90
02:43PM 43.4167 -71.5333 200° South 131 151 4,700 783 Climbing KA90
02:44PM 43.3833 -71.5500 200° South 133 153 5,300 737 Climbing KA90
02:45PM 43.3500 -71.5833 216° Southwest 137 158 6,100 810 Climbing KA90
02:46PM 43.3167 -71.6000 200° South 139 160 7,000 795 Climbing KA90
02:47PM 43.2583 -71.6361 206° Southwest 140 161 8,100 750 Climbing Boston Center
02:48PM 43.2688 -71.6137 206° Southwest  Level Estimated
02:49PM 43.2250 -71.6536 201° Southwest 145 167 8,900  Level Boston Center
02:50PM 43.1836 -71.6742 200° South 145 167 9,600 694 Climbing Boston Center
02:51PM 43.1503 -71.7003 210° Southwest 150 173 10,300 763 Climbing Boston Center
02:51PM 43.1089 -71.7206 200° South 156 180 11,100 900 Climbing Boston Center
02:53PM 43.0694 -71.7467 206° Southwest 156 180 12,100 850 Climbing Boston Center
02:53PM 43.0300 -71.7697 203° Southwest 156 180 12,800 763 Climbing Boston Center
02:54PM 42.9925 -71.7986 209° Southwest 156 180 13,600 595 Climbing Boston Center
02:56PM 42.9511 -71.8189 200° South 156 180 14,000 197 Climbing Boston Center
02:57PM 42.9075 -71.8475 206° Southwest 173 199 14,000  Level Boston Center
02:57PM 42.8594 -71.8736 202° Southwest 178 205 14,000 -51 Level Boston Center
02:58PM 42.8117 -71.8994 202° Southwest 184 212 13,900  Descending Boston Center
03:00PM 42.7639 -71.9311 206° Southwest 189 217 14,000 49 Climbing Boston Center
03:01PM 42.7161 -71.9569 202° Southwest 189 217 14,000  Level Boston Center
03:02PM 42.6683 -71.9856 204° Southwest 189 217 14,000  Level Boston Center
03:02PM 42.6183 -72.0169 205° Southwest 194 223 14,000  Level Boston Center
03:03PM 42.5728 -72.0425 202° Southwest 194 223 14,000 -99 Level Boston Center
03:05PM 42.5206 -72.0569 192° South 194 223 13,800 -347 Descending Boston Center
03:06PM 42.4622 -72.0517 176° South 200 230 13,300 -545 Descending Boston Center
03:07PM 42.4039 -72.0492 178° South 211 243 12,700 -545 Descending Boston Center
03:08PM 42.3456 -72.0439 176° South 216 249 12,200 -356 Descending Boston Center
03:08PM 42.2933 -72.0444 180° South 216 249 12,000 -102 Descending Boston Center
03:09PM 42.2331 -72.0392 176° South 211 243 12,000  Level Boston Center
03:11PM 42.1850 -72.0367 178° South 205 236 12,000  Level Boston Center
03:12PM 42.1267 -72.0314 176° South 200 230 12,000  Level Boston Center
03:12PM 42.0767 -72.0317 180° South 195 224 12,000 -252 Level Boston Center
03:13PM 42.0161 -72.0294 178° South 195 224 11,500 -446 Descending Boston Center
03:14PM 41.9642 -72.0242 176° South 200 230 11,100 -443 Descending Boston Center
03:16PM 41.9014 -72.0189 176° South 200 230 10,600 -492 Descending Boston Center
03:17PM 41.8453 -72.0164 178° South 205 236 10,100 -229 Descending Boston Center
03:18PM 41.7556 -72.0117 178° South 183 211 10,000 -38 Descending Boston Center
03:19PM 41.7014 -72.0092 178° South 186 214 10,000  Level Boston Center
03:20PM 41.6492 -72.0067 178° South 185 213 10,000  Level Boston Center
03:21PM 41.5992 -72.0014 175° South 184 212 10,000 -158 Level Boston Center
03:22PM 41.5514 -72.0044 183° South 182 209 9,700 -692 Descending Boston Center
03:24PM 41.4981 -72.0675 222° Southwest  Level FlightAware Approximate
03:24PM 41.4703 -72.1075 222° Southwest 197 227 7,900  Level Boston Center
03:25PM 41.4206 -72.1606 219° Southwest 203 234 6,900 -776 Descending Boston Center
03:26PM 41.3767 -72.1664 186° South 195 224 6,400 -804 Descending Boston Center
03:27PM 41.3331 -72.1775 191° South 190 219 5,600 -857 Descending Boston Center
03:28PM 41.2622 -72.1531 165° South 198 228 4,500 -716 Descending Boston Center
03:29PM 41.2203 -72.1339 161° South 180 207 4,000 -263 Descending Boston Center
03:30PM 41.1744 -72.1119 160° South 173 199 4,000  Level Boston Center
03:31PM 41.1264 -72.0875 159° South 166 191 4,000 -302 Level Boston Center
03:33PM 41.0703 -72.0656 164° South 175 201 3,300 -451 Descending Boston Center
03:34PM 41.0222 -72.0383 157° South 182 209 3,000 -180 Descending Boston Center
03:34PM 40.9950 -72.0331 172° South 154 177 3,000 -400 Level Boston Center
03:35PM 40.9619 -72.0717 221° Southwest 158 182 2,300 -636 Descending Boston Center
03:37PM 40.9609 -72.1464 269° West  Level Estimated
03:44PM 40.9594 -72.2517 269° West  Level Estimated
03:45PM 40.9594 -72.2517 143° Southeast  Level Estimated
03:46PM 40.9594 -72.2517 143° Southeast  Level Estimated
03:47PM 40.9594 -72.2517 143° Southeast  Level Estimated
03:48PM 40.9594 -72.2517 143° Southeast  Level Estimated
03:49PM 40.9594 -72.2517 143° Southeast  Level Estimated
03:50PM 40.9594 -72.2517 143° Southeast  Level Estimated
03:51PM 40.9594 -72.2517 143° Southeast  Level Estimated
03:52PM 40.9594 -72.2517 143° Southeast  Level Estimated
03:53PM 40.9594 -72.2517 143° Southeast  Level Estimated

Login

Don't have an account? Register now (free) for customized features, flight alerts, and more!